| time (UTC) | temp F | wind direction | speed knots | gust knots | rain 1hr in | rain 24hr in | rain mn in | humidity % | barometer mb |
| 20260507133547 | 56 | 74 | 2.6 | 7.0 | 0.00 | 0.00 | 0.00 | 24 | 1022.4 |
| 20260507130527 | 48 | 110 | 0.0 | 3.5 | 0.00 | 0.00 | 0.00 | 34 | 1022.3 |
| 20260507123538 | 40 | 104 | 0.0 | 0.0 | 0.00 | 0.00 | 0.00 | 48 | 1022.0 |
| 20260507120542 | 41 | 104 | 0.0 | 0.0 | 0.00 | 0.00 | 0.00 | 50 | 1021.9 |
| 20260507113533 | 41 | 104 | 0.0 | 0.0 | 0.00 | 0.00 | 0.00 | 54 | 1021.5 |
| 20260507110532 | 38 | 98 | 0.0 | 0.0 | 0.00 | 0.00 | 0.00 | 66 | 1021.6 |
| 20260507103543 | 37 | 113 | 0.0 | 0.0 | 0.00 | 0.00 | 0.00 | 74 | 1021.5 |
| 20260507100547 | 37 | 193 | 0.0 | 0.0 | 0.00 | 0.00 | 0.00 | 75 | 1021.7 |
| 20260507093539 | 38 | 193 | 0.0 | 0.0 | 0.00 | 0.00 | 0.00 | 73 | 1021.8 |
| 20260507090542 | 39 | 193 | 0.0 | 0.0 | 0.00 | 0.00 | 0.00 | 72 | 1021.9 |
| 20260507083542 | 39 | 193 | 0.0 | 0.0 | 0.00 | 0.00 | 0.00 | 71 | 1022.0 |
| 20260507080544 | 39 | 261 | 0.0 | 0.0 | 0.00 | 0.00 | 0.00 | 69 | 1022.2 |
| 20260507073544 | 41 | 261 | 0.0 | 0.0 | 0.00 | 0.00 | 0.00 | 66 | 1022.4 |
| 20260507070528 | 43 | 261 | 0.0 | 0.0 | 0.00 | 0.00 | 0.00 | 62 | 1022.5 |
| 20260507063539 | 45 | 261 | 0.0 | 0.0 | 0.00 | 0.00 | 0.00 | 58 | 1022.0 |
| 20260507060527 | 47 | 261 | 0.0 | 0.0 | 0.00 | 0.00 | 0.00 | 54 | 1021.8 |
| 20260507053538 | 50 | 261 | 0.0 | 0.0 | 0.00 | 0.00 | 0.00 | 49 | 1021.3 |
| 20260507050541 | 53 | 261 | 0.0 | 0.0 | 0.00 | 0.00 | 0.00 | 45 | 1021.4 |
| 20260507043533 | 56 | 261 | 0.0 | 0.0 | 0.00 | 0.00 | 0.00 | 40 | 1021.2 |
| 20260507040527 | 58 | 261 | 0.0 | 0.0 | 0.00 | 0.00 | 0.00 | 38 | 1020.8 |
| 20260507033539 | 59 | 247 | 0.9 | 7.8 | 0.00 | 0.00 | 0.00 | 37 | 1020.4 |
| 20260507030545 | 60 | 240 | 4.3 | 7.8 | 0.00 | 0.00 | 0.00 | 36 | 1019.7 |
| 20260507023535 | 62 | 240 | 0.0 | 4.3 | 0.00 | 0.00 | 0.00 | 34 | 1019.4 |
| 20260507020538 | 64 | 253 | 0.9 | 7.0 | 0.00 | 0.00 | 0.00 | 31 | 1018.9 |
| 20260507013530 | 66 | 267 | 2.6 | 6.1 | 0.00 | 0.00 | 0.00 | 29 | 1018.6 |
| 20260507010534 | 68 | 264 | 0.0 | 2.6 | 0.00 | 0.00 | 0.00 | 27 | 1018.5 |
| 20260507003525 | 70 | 244 | 0.0 | 8.7 | 0.00 | 0.00 | 0.00 | 26 | 1018.3 |
| 20260507000525 | 71 | 238 | 0.0 | 8.7 | 0.00 | 0.00 | 0.00 | 25 | 1018.3 |
| 20260506233536 | 72 | 232 | 0.9 | 6.1 | 0.00 | 0.00 | 0.00 | 24 | 1018.1 |
| 20260506230529 | 71 | 252 | 0.9 | 13.9 | 0.00 | 0.00 | 0.00 | 25 | 1018.3 |
| 20260506223540 | 72 | 244 | 3.5 | 8.7 | 0.00 | 0.00 | 0.00 | 25 | 1018.5 |
| 20260506220543 | 71 | 232 | 2.6 | 12.2 | 0.00 | 0.00 | 0.00 | 27 | 1018.5 |
| 20260506213544 | 70 | 281 | 0.0 | 10.4 | 0.00 | 0.01 | 0.00 | 26 | 1018.8 |
| 20260506210548 | 70 | 235 | 1.7 | 7.8 | 0.00 | 0.01 | 0.00 | 28 | 1019.0 |
| 20260506203544 | 69 | 257 | 0.0 | 7.8 | 0.00 | 0.02 | 0.00 | 28 | 1019.3 |
| 20260506200528 | 68 | 261 | 4.3 | 12.2 | 0.00 | 0.02 | 0.00 | 30 | 1019.4 |
| 20260506193533 | 66 | 205 | 2.6 | 10.4 | 0.00 | 0.02 | 0.00 | 32 | 1019.5 |
| 20260506190534 | 65 | 232 | 1.7 | 8.7 | 0.00 | 0.02 | 0.00 | 32 | 1019.8 |
| 20260506183535 | 63 | 228 | 0.0 | 10.4 | 0.00 | 0.02 | 0.00 | 34 | 1020.1 |
| 20260506180552 | 63 | 232 | 1.7 | 7.0 | 0.00 | 0.02 | 0.00 | 31 | 1020.3 |
| 20260506173530 | 60 | 234 | 4.3 | 9.6 | 0.00 | 0.05 | 0.00 | 34 | 1020.5 |
| 20260506170534 | 59 | 254 | 1.7 | 9.6 | 0.00 | 0.05 | 0.00 | 36 | 1020.3 |
| 20260506163545 | 57 | 241 | 4.3 | 9.6 | 0.00 | 0.11 | 0.00 | 39 | 1020.1 |
| 20260506160531 | 56 | 235 | 2.6 | 7.8 | 0.00 | 0.11 | 0.00 | 44 | 1020.1 |
| 20260506153544 | 55 | 233 | 1.7 | 8.7 | 0.00 | 0.11 | 0.00 | 48 | 1020.1 |
| 20260506150529 | 52 | 152 | 0.0 | 0.0 | 0.00 | 0.11 | 0.00 | 54 | 1019.9 |
| 20260506143544 | 46 | 154 | 0.0 | 0.0 | 0.00 | 0.11 | 0.00 | 75 | 1019.9 |
| 20260506140528 | 39 | 154 | 0.0 | 0.0 | 0.00 | 0.11 | 0.00 | 94 | 1020.1 |